[[{"header":{"parameterUnit":"m.s-1","parameterCategory":1,"la1":30.2991,"la2":30.254,"lo1":-89.0895,"lo2":-89.0444,"dx":0.0017,"dy":0.0017,"nx":28,"ny":28,"refTime":"2023-01-30T15:00:00:Z","depth":0,"parameterNumber":2,"parameterNumberName":"U-component_of_WINDS"},"data":[0,0,0,0,0,0,0,0,0,0,0,0,0,0,0,0,0,0,0,0,0,0,0,0,0,0,0,0,0,0,0,0,0,0,0,0,0,0,0,0,0,0,0,0,0,0,0,0,0,0,0,0,0,0,0,0,0,0,-0.3678,-0.3679,0,-0.3692,-0.3692,-0.3692,-0.3637,-0.3636,-0.3634,-0.3632,-0.3647,-0.3648,-0.365,0,0,0,0,0,0,0,0,0,0,0,0,0,-0.3605,-0.3606,-0.3678,-0.3679,-0.3679,-0.3692,-0.3692,-0.3692,-0.3637,-0.3635,-0.3634,-0.3632,-0.3646,-0.3648,-0.365,0,0,0,0,0,0,0,0,0,0,0,0,0,-0.3629,-0.3607,-0.3678,-0.3653,-0.3651,-0.3692,-0.3692,-0.3692,-0.3638,-0.3635,-0.3633,-0.3631,-0.3645,-0.3648,-0.3651,-0.3717,0,0,-0.3659,-0.3661,0,0,0,0,0,0,0,0,-0.3628,-0.3632,-0.3657,-0.3655,-0.3652,-0.366,-0.3671,-0.37,-0.3638,-0.3643,-0.3632,-0.363,-0.3653,-0.3655,-0.3663,-0.3717,-0.3718,-0.366,-0.3661,-0.3663,-0.3663,0,0,0,0,0,0,0,-0.3626,-0.3631,-0.3684,-0.3657,-0.3655,-0.3641,-0.3641,-0.3676,-0.3661,-0.3642,-0.3638,-0.3641,-0.3652,-0.366,-0.3663,-0.3718,-0.366,-0.3662,-0.3664,-0.3665,-0.3826,-0.3828,0,0,0,0,0,0,-0.3628,-0.363,-0.3683,-0.3684,-0.3634,-0.3644,-0.3645,-0.366,-0.3661,-0.3659,-0.3643,-0.3638,-0.3657,-0.366,-0.3663,-0.374,-0.3663,-0.3665,-0.3667,-0.3823,-0.3826,-0.3829,0,0,0,0,0,0,-0.3627,-0.3633,-0.3683,-0.3656,-0.3661,-0.3648,-0.3666,-0.3662,-0.3671,-0.3661,-0.3658,-0.3655,-0.3655,-0.3659,-0.3703,-0.374,-0.3667,-0.3669,-0.382,-0.3824,-0.3828,-0.3894,0,0,0,0,0,0,-0.3625,-0.3633,-0.3658,-0.3657,-0.3663,-0.3723,-0.3668,-0.3664,-0.3676,-0.367,-0.3672,-0.367,-0.3653,-0.37,-0.3706,-0.3742,-0.3671,-0.3817,-0.3822,-0.3827,-0.3889,-0.39,-0.3909,0,0,0,0,0,-0.3622,-0.3677,-0.366,-0.3667,-0.3694,-0.3726,-0.3729,-0.3709,-0.3679,-0.3704,-0.3697,-0.367,-0.3734,-0.3705,-0.3712,-0.3749,-0.3815,-0.3821,-0.3826,-0.3884,-0.3898,-0.3909,0,0,0,0,0,0,-0.3684,-0.3677,-0.3658,-0.3714,-0.372,-0.3716,-0.3747,-0.3724,-0.374,-0.3734,-0.3709,-0.371,-0.3758,-0.3758,-0.3725,-0.3812,-0.3769,-0.3777,-0.3811,-0.3824,-0.3834,-0.3833,-0.3674,0,0,0,0,0,-0.3704,-0.373,-0.3722,-0.3772,-0.3776,-0.3761,-0.3774,-0.3758,-0.3764,-0.3767,-0.3764,-0.3771,-0.3793,-0.3808,-0.3828,-0.3888,-0.3887,-0.3917,-0.3927,-0.3936,-0.3943,-0.3974,-0.3986,-0.3848,-0.3848,-0.3848,0,0,-0.3746,-0.3745,-0.3763,-0.3784,-0.3788,-0.3815,-0.3764,-0.3796,-0.3815,-0.3772,-0.3813,-0.3811,-0.3817,-0.387,-0.3893,-0.3871,-0.398,-0.3943,-0.395,-0.3952,-0.3981,-0.3994,-0.4006,-0.3852,-0.3851,-0.3851,0,0,-0.3836,-0.3838,-0.3879,-0.3884,-0.3889,-0.3878,-0.3888,-0.3887,-0.3884,-0.3925,-0.3893,-0.3915,-0.3954,-0.3959,-0.3967,-0.4057,-0.4032,-0.4064,-0.4118,-0.4149,-0.4159,-0.4169,-0.4201,-0.4213,-0.4071,-0.4071,-0.4071,0,-0.3888,-0.3927,-0.3904,-0.3937,-0.3947,-0.3908,-0.3949,-0.3954,-0.3966,-0.3974,-0.3949,-0.3995,-0.3997,-0.4049,-0.4071,-0.4079,-0.4089,-0.4064,-0.416,-0.4169,-0.4178,-0.4208,-0.422,-0.4075,-0.4074,-0.4074,-0.4074,0,-0.399,-0.4018,-0.405,-0.4062,-0.4076,-0.4113,-0.4095,-0.4111,-0.4093,-0.4085,-0.4126,-0.4126,-0.4145,-0.4156,-0.4139,-0.4206,-0.4192,-0.4164,-0.4121,-0.4195,-0.4223,-0.4234,-0.408,-0.4079,-0.4078,-0.4077,0,0,-0.4121,-0.4118,-0.413,-0.4134,-0.4137,-0.4158,-0.4192,-0.421,-0.4224,-0.4233,-0.4261,-0.4294,-0.4267,-0.4276,-0.4259,-0.4286,-0.4356,-0.4254,-0.4254,-0.4273,-0.4429,-0.4451,-0.4464,-0.4339,-0.4341,-0.4343,-0.4429,0,-0.4209,-0.4269,-0.4248,-0.4308,-0.4333,-0.4295,-0.4325,-0.433,-0.4322,-0.4342,-0.4334,-0.4357,-0.4321,-0.4326,-0.435,-0.4343,-0.4387,-0.4336,-0.4365,-0.4367,-0.4366,-0.4479,-0.4502,-0.4583,-0.4439,-0.4441,-0.4442,0,-0.4321,-0.4333,-0.4396,-0.4392,-0.4402,-0.443,-0.4443,-0.4463,-0.4466,-0.4459,-0.4468,-0.4445,-0.4478,-0.4434,-0.4479,-0.4445,-0.4455,-0.4453,-0.4456,-0.4458,-0.441,-0.4485,-0.4608,-0.4621,-0.4459,-0.4458,-0.4457,0,-0.441,-0.4442,-0.4484,-0.4488,-0.4486,-0.4506,-0.4505,-0.4506,-0.4518,-0.4529,-0.4536,-0.4552,-0.4561,-0.4573,-0.4555,-0.4524,-0.4602,-0.4557,-0.4597,-0.4598,-0.4616,-0.4615,-0.4744,-0.4622,-0.4622,-0.4622,-0.4622,0,-0.4511,-0.4551,-0.4524,-0.4549,-0.4592,-0.4567,-0.461,-0.4606,-0.4607,-0.4631,-0.4599,-0.4622,-0.4596,-0.4616,-0.4602,-0.4641,-0.4645,-0.464,-0.4636,-0.4643,-0.4644,-0.465,-0.4644,-0.4625,-0.4624,-0.4624,-0.4623,0,-0.4619,-0.4602,-0.4644,-0.4637,-0.4636,-0.4669,-0.4662,-0.4685,-0.4675,-0.4705,-0.4711,-0.4695,-0.4717,-0.4699,-0.4721,-0.4712,-0.4764,-0.4751,-0.4762,-0.4759,-0.4801,-0.4797,-0.4938,-0.4955,-0.4822,-0.4824,-0.4825,0,-0.4685,-0.4714,-0.471,-0.4723,-0.4724,-0.4746,-0.4757,-0.4733,-0.4746,-0.4751,-0.4774,-0.4793,-0.4807,-0.4844,-0.4834,-0.485,-0.4838,-0.4886,-0.4841,-0.4847,-0.4839,-0.4838,-0.484,-0.4896,-0.4898,-0.4899,-0.49,0,-0.4803,-0.4793,-0.481,-0.4823,-0.4837,-0.4847,-0.4854,-0.4867,-0.4842,-0.4858,-0.488,-0.489,-0.4912,-0.4931,-0.4944,-0.4943,-0.4918,-0.4914,-0.4924,-0.4933,-0.4938,-0.4935,-0.4788,-0.4911,-0.491,-0.4909,-0.4909,-0.4908,-0.4892,-0.4916,-0.4916,-0.4936,-0.4938,-0.4945,-0.4966,-0.4958,-0.4975,-0.4991,-0.4975,-0.5001,-0.5003,-0.5017,-0.5019,-0.5039,-0.5019,-0.5034,-0.5038,-0.5042,-0.5048,-0.4934,-0.5042,-0.5041,-0.5041,-0.5041,-0.504,0,-0.5009,-0.5006,-0.5024,-0.5035,-0.505,-0.5023,-0.503,-0.5044,-0.5067,-0.5071,-0.5085,-0.5109,-0.5128,-0.5119,-0.5134,-0.5152,-0.5141,-0.5157,-0.5156,-0.5156,-0.5065,-0.5055,-0.5166,-0.5166,-0.5166,-0.5166,-0.5166,-0.5166,-0.5071,-0.511,-0.51,-0.5139,-0.5137,-0.5162,-0.5167,-0.5174,-0.5176,-0.5205,-0.5219,-0.5213,-0.5211,-0.5226,-0.5241,-0.5238,-0.5246,-0.5266,-0.5259,-0.5175,-0.5162,-0.5151,-0.5141,-0.5268,-0.5268,-0.5348,-0.5349,-0.5349]},{"header":{"parameterUnit":"m.s-1","parameterCategory":1,"la1":30.2991,"la2":30.254,"lo1":-89.0895,"lo2":-89.0444,"dx":0.0017,"dy":0.0017,"nx":28,"ny":28,"refTime":"2023-01-30T15:00:00:Z","depth":0,"parameterNumber":3,"parameterNumberName":"V-component_of_WINDS"},"data":[0,0,0,0,0,0,0,0,0,0,0,0,0,0,0,0,0,0,0,0,0,0,0,0,0,0,0,0,0,0,0,0,0,0,0,0,0,0,0,0,0,0,0,0,0,0,0,0,0,0,0,0,0,0,0,0,0,0,1.3065,1.3064,0,1.2982,1.2981,1.298,1.2958,1.2959,1.2959,1.296,1.287,1.2867,1.2864,0,0,0,0,0,0,0,0,0,0,0,0,0,1.3202,1.3199,1.3065,1.3064,1.3063,1.2982,1.2981,1.298,1.2958,1.2959,1.2959,1.296,1.2871,1.2867,1.2864,0,0,0,0,0,0,0,0,0,0,0,0,0,1.3133,1.3199,1.3065,1.3043,1.304,1.2982,1.2981,1.2979,1.2958,1.2959,1.296,1.296,1.2872,1.2868,1.2863,1.2821,0,0,1.285,1.2848,0,0,0,0,0,0,0,0,1.3137,1.3128,1.3047,1.3044,1.3041,1.2981,1.2996,1.2926,1.2958,1.2989,1.296,1.2961,1.2906,1.2899,1.2881,1.2817,1.2813,1.285,1.2847,1.2845,1.2844,0,0,0,0,0,0,0,1.3141,1.3131,1.3032,1.3046,1.3042,1.3035,1.3026,1.2983,1.2944,1.2986,1.2984,1.2975,1.2904,1.2886,1.2879,1.2811,1.285,1.2846,1.2843,1.2842,1.2707,1.2706,0,0,0,0,0,0,1.3151,1.3135,1.3035,1.3029,1.3092,1.3032,1.3022,1.2999,1.2944,1.2937,1.2975,1.2974,1.2893,1.2884,1.2876,1.2822,1.2845,1.2841,1.2839,1.2708,1.2707,1.2706,0,0,0,0,0,0,1.3154,1.3142,1.3038,1.3082,1.3068,1.3029,1.3004,1.2997,1.2979,1.2936,1.2928,1.2963,1.2893,1.2882,1.2835,1.2818,1.2839,1.2835,1.2709,1.2708,1.2706,1.2714,0,0,0,0,0,0,1.3158,1.3143,1.3128,1.3082,1.3066,1.3,1.3003,1.2995,1.2972,1.2971,1.2922,1.2915,1.2893,1.2841,1.2831,1.2813,1.2832,1.271,1.2708,1.2707,1.2715,1.2713,1.2711,0,0,0,0,0,1.3163,1.3132,1.3127,1.3115,1.3046,1.2999,1.299,1.2966,1.2971,1.2954,1.2926,1.2917,1.2822,1.2837,1.2824,1.2805,1.2711,1.2709,1.2707,1.2716,1.2714,1.2711,0,0,0,0,0,0,1.3175,1.3126,1.3119,1.3073,1.3041,1.2995,1.2973,1.2964,1.2928,1.2928,1.2899,1.2888,1.2843,1.2819,1.2836,1.2761,1.2767,1.2762,1.2778,1.2775,1.2773,1.2779,1.2828,0,0,0,0,0,1.3173,1.3141,1.3098,1.3062,1.3046,1.3013,1.2991,1.2976,1.294,1.2926,1.2895,1.2859,1.2821,1.2797,1.276,1.2712,1.27,1.2693,1.2691,1.2689,1.2685,1.2657,1.2653,1.2698,1.2699,1.2699,0,0,1.3167,1.3136,1.3117,1.3063,1.3036,1.3002,1.3001,1.2965,1.2938,1.292,1.2874,1.285,1.2808,1.276,1.2738,1.2739,1.267,1.2687,1.2686,1.2682,1.2655,1.265,1.2647,1.2697,1.2697,1.2698,0,0,1.3139,1.3113,1.308,1.3053,1.3013,1.2991,1.2983,1.2939,1.2923,1.2877,1.2862,1.283,1.2765,1.2736,1.2713,1.2675,1.2664,1.2664,1.2653,1.2627,1.2623,1.262,1.2605,1.26,1.266,1.266,1.266,0,1.3137,1.3086,1.3063,1.3028,1.3004,1.2988,1.2953,1.2927,1.2876,1.286,1.2863,1.2782,1.2753,1.2698,1.2689,1.2671,1.266,1.2668,1.2626,1.2622,1.2619,1.2604,1.2599,1.266,1.266,1.266,1.266,0,1.3085,1.3049,1.3027,1.298,1.2954,1.2919,1.289,1.2866,1.2853,1.283,1.2783,1.2748,1.2703,1.2689,1.2675,1.2632,1.2634,1.2632,1.2637,1.2615,1.2601,1.2595,1.266,1.266,1.266,1.266,0,0,1.3061,1.3003,1.2995,1.2973,1.2928,1.2899,1.2863,1.2821,1.2801,1.2766,1.2735,1.2681,1.2679,1.2653,1.2636,1.2612,1.2583,1.2613,1.2611,1.2608,1.2532,1.2534,1.2528,1.2577,1.2576,1.2575,1.2536,0,1.3027,1.2964,1.2942,1.2889,1.2856,1.284,1.2808,1.2776,1.2754,1.2722,1.2697,1.2659,1.266,1.2644,1.262,1.2592,1.2568,1.2595,1.2545,1.2544,1.2555,1.2521,1.2522,1.2487,1.253,1.2529,1.2528,0,1.2978,1.2945,1.2889,1.2848,1.2833,1.2805,1.2765,1.2734,1.2697,1.2683,1.2654,1.2639,1.2599,1.2608,1.2552,1.2571,1.2549,1.2533,1.2531,1.2524,1.2534,1.2512,1.2475,1.2469,1.252,1.2521,1.2521,0,1.2966,1.2907,1.2865,1.2847,1.2799,1.2779,1.2758,1.2722,1.2698,1.2662,1.2646,1.2606,1.2584,1.2552,1.2526,1.2535,1.2472,1.2479,1.2458,1.2458,1.2444,1.2445,1.2402,1.2432,1.2432,1.2433,1.2433,0,1.2929,1.2895,1.2859,1.2834,1.2795,1.277,1.2732,1.271,1.2678,1.2646,1.263,1.2601,1.2568,1.2535,1.2514,1.247,1.246,1.2446,1.2441,1.2447,1.2449,1.2432,1.2434,1.2431,1.2431,1.2432,1.2432,0,1.2909,1.2883,1.2837,1.2795,1.2784,1.2757,1.272,1.2694,1.2672,1.2633,1.2622,1.2587,1.2546,1.2518,1.2465,1.2451,1.2403,1.2399,1.2416,1.2414,1.2394,1.2396,1.2337,1.2328,1.2366,1.2366,1.2365,0,1.2887,1.286,1.2816,1.2795,1.2774,1.274,1.2716,1.269,1.2666,1.2622,1.2601,1.2559,1.2525,1.246,1.2429,1.2388,1.2382,1.2364,1.2375,1.2383,1.238,1.2382,1.2379,1.2362,1.2362,1.2362,1.2361,0,1.285,1.2839,1.2806,1.2768,1.274,1.2709,1.2677,1.2661,1.2629,1.2602,1.2562,1.2535,1.2482,1.244,1.2397,1.2373,1.2361,1.2358,1.2351,1.2357,1.2368,1.2361,1.2411,1.2359,1.236,1.236,1.236,1.236,1.2827,1.2803,1.2768,1.2732,1.2706,1.2677,1.265,1.2626,1.2592,1.2548,1.2534,1.2492,1.2455,1.2395,1.2371,1.2336,1.2337,1.2327,1.2324,1.2322,1.2322,1.2375,1.2328,1.2328,1.2328,1.2328,1.2328,0,1.2789,1.2766,1.2733,1.269,1.2661,1.2655,1.262,1.2595,1.2559,1.2526,1.2493,1.2446,1.2405,1.2371,1.233,1.2308,1.2302,1.2298,1.2299,1.2293,1.2324,1.2334,1.2304,1.2304,1.2304,1.2304,1.2304,1.2304,1.2765,1.2724,1.2709,1.2655,1.2631,1.2591,1.2571,1.2544,1.2518,1.2466,1.2434,1.2412,1.2379,1.2334,1.2297,1.2288,1.2272,1.227,1.2259,1.2288,1.2291,1.2294,1.2303,1.2267,1.2267,1.2231,1.2231,1.2231]}]]